TimeCST,TemperatureF,Dew PointF,Humidity,Sea Level PressureIn,VisibilityMPH,Wind Direction,Wind SpeedMPH,Gust SpeedMPH,PrecipitationIn,Events,Conditions,WindDirDegrees,DateUTC
12:15 AM,33.8,33.8,100,29.83,4.0,North,11.5,17.3,0.01,Snow,Light Snow,350,2013-01-13 06:15:00
12:35 AM,33.8,33.8,100,29.85,4.0,NW,10.4,16.1,0.02,,Overcast,320,2013-01-13 06:35:00
12:55 AM,33.8,32.0,93,29.85,7.0,NNW,11.5,18.4,0.03,,Overcast,330,2013-01-13 06:55:00
1:15 AM,33.8,32.0,93,29.85,7.0,NNW,12.7,19.6,0.01,,Overcast,340,2013-01-13 07:15:00
1:35 AM,33.8,32.0,93,29.86,7.0,NNW,11.5,19.6,0.02,,Overcast,340,2013-01-13 07:35:00
1:55 AM,33.8,32.0,93,29.86,10.0,NNW,11.5,23.0,0.04,,Overcast,340,2013-01-13 07:55:00
2:15 AM,33.8,32.0,93,29.86,7.0,NNW,13.8,18.4,0.01,,Overcast,340,2013-01-13 08:15:00
2:35 AM,33.8,32.0,93,29.86,7.0,North,13.8,19.6,0.03,,Overcast,350,2013-01-13 08:35:00
2:55 AM,33.8,32.0,93,29.87,10.0,NNW,10.4,-,0.04,,Overcast,340,2013-01-13 08:55:00
3:35 AM,33.8,33.8,100,29.86,7.0,North,10.4,-,0.02,,Overcast,350,2013-01-13 09:35:00
3:55 AM,33.8,33.8,100,29.87,7.0,NW,5.8,-,0.03,,Overcast,320,2013-01-13 09:55:00
4:15 AM,33.8,33.8,100,29.87,3.0,NNW,5.8,-,N/A,,Drizzle,330,2013-01-13 10:15:00
4:35 AM,33.8,33.8,100,29.88,2.5,NW,4.6,-,0.01,,Light Drizzle,320,2013-01-13 10:35:00
4:55 AM,33.8,33.8,100,29.89,2.5,West,4.6,-,0.02,,Light Drizzle,280,2013-01-13 10:55:00
5:15 AM,33.8,33.8,100,29.91,2.0,West,5.8,-,N/A,Rain,Rain,280,2013-01-13 11:15:00
5:35 AM,33.8,33.8,100,29.93,2.0,West,8.1,-,N/A,Rain,Light Rain,270,2013-01-13 11:35:00
5:55 AM,33.8,33.8,100,29.94,2.5,West,6.9,-,N/A,,Overcast,270,2013-01-13 11:55:00
6:15 AM,33.8,32.0,93,29.91,2.5,WNW,6.9,-,N/A,,Overcast,290,2013-01-13 12:15:00
6:35 AM,32.0,32.0,100,29.93,2.5,WNW,9.2,-,N/A,,Overcast,290,2013-01-13 12:35:00
6:55 AM,32.0,32.0,100,29.94,3.0,WNW,10.4,-,N/A,,Overcast,290,2013-01-13 12:55:00
7:15 AM,32.0,32.0,100,29.94,3.0,WNW,10.4,-,N/A,,Overcast,290,2013-01-13 13:15:00
7:35 AM,32.0,32.0,100,29.94,4.0,WNW,11.5,17.3,N/A,,Overcast,300,2013-01-13 13:35:00
7:55 AM,32.0,32.0,100,29.95,4.0,WNW,9.2,-,N/A,,Overcast,300,2013-01-13 13:55:00
8:15 AM,32.0,32.0,100,29.97,2.5,WNW,11.5,18.4,N/A,,Overcast,290,2013-01-13 14:15:00
8:35 AM,32.0,32.0,100,29.97,2.5,WNW,10.4,-,N/A,,Overcast,300,2013-01-13 14:35:00
9:15 AM,32.0,32.0,100,29.93,2.0,NNW,6.9,-,N/A,,Overcast,330,2013-01-13 15:15:00
9:55 AM,30.2,30.2,100,30.01,2.5,West,15.0,23.0,N/A,,Overcast,280,2013-01-13 15:55:00
10:15 AM,30.2,30.2,100,30.03,3.0,WNW,12.7,21.9,N/A,,Overcast,290,2013-01-13 16:15:00
10:35 AM,30.2,30.2,100,29.98,3.0,NW,10.4,-,N/A,,Overcast,310,2013-01-13 16:35:00
10:55 AM,30.2,30.2,100,29.95,3.0,NW,9.2,-,N/A,,Overcast,310,2013-01-13 16:55:00
11:15 AM,32.0,30.2,93,29.96,5.0,NW,10.4,-,N/A,,Overcast,310,2013-01-13 17:15:00
11:55 AM,32.0,30.2,93,29.94,4.0,WNW,9.2,-,N/A,,Overcast,300,2013-01-13 17:55:00
12:15 PM,32.0,30.2,93,29.99,3.0,WNW,15.0,-,N/A,,Overcast,290,2013-01-13 18:15:00
12:35 PM,30.2,30.2,100,29.98,1.2,WNW,13.8,19.6,N/A,Snow,Light Snow,290,2013-01-13 18:35:00
12:55 PM,30.2,28.4,93,29.99,2.5,WNW,12.7,19.6,N/A,Snow,Light Snow,290,2013-01-13 18:55:00
1:15 PM,28.4,28.4,100,29.98,4.0,WNW,13.8,-,N/A,Snow,Light Snow,290,2013-01-13 19:15:00
1:35 PM,28.4,28.4,100,29.95,3.0,NW,11.5,-,N/A,Snow,Light Snow,310,2013-01-13 19:35:00
1:55 PM,28.4,28.4,100,30.00,5.0,West,8.1,-,N/A,Snow,Light Snow,280,2013-01-13 19:55:00
2:15 PM,28.4,28.4,100,29.99,4.0,WNW,10.4,-,N/A,,Overcast,300,2013-01-13 20:15:00
2:35 PM,28.4,26.6,93,29.99,7.0,WNW,9.2,-,N/A,,Overcast,290,2013-01-13 20:35:00
2:55 PM,28.4,26.6,93,30.01,10.0,West,9.2,-,N/A,,Overcast,280,2013-01-13 20:55:00
3:15 PM,28.4,26.6,93,30.02,10.0,West,12.7,-,N/A,,Overcast,280,2013-01-13 21:15:00
3:55 PM,26.6,24.8,93,30.04,10.0,West,15.0,19.6,N/A,,Overcast,280,2013-01-13 21:55:00
4:55 PM,26.6,23.0,86,30.09,10.0,West,13.8,-,N/A,,Overcast,270,2013-01-13 22:55:00
5:15 PM,26.6,23.0,86,30.10,10.0,West,12.7,-,N/A,,Overcast,270,2013-01-13 23:15:00
5:35 PM,24.8,23.0,93,30.10,10.0,West,16.1,20.7,N/A,,Overcast,260,2013-01-13 23:35:00
5:55 PM,24.8,21.2,86,30.12,10.0,West,16.1,20.7,N/A,,Overcast,260,2013-01-13 23:55:00
6:35 PM,23.0,21.2,93,30.14,10.0,West,17.3,24.2,N/A,,Overcast,260,2013-01-14 00:35:00
6:55 PM,23.0,19.4,86,30.14,10.0,West,16.1,21.9,N/A,,Overcast,270,2013-01-14 00:55:00
7:15 PM,21.2,17.6,86,30.14,10.0,West,19.6,26.5,N/A,,Overcast,260,2013-01-14 01:15:00
7:35 PM,21.2,17.6,86,30.15,10.0,West,16.1,25.3,N/A,,Mostly Cloudy,280,2013-01-14 01:35:00
7:55 PM,21.2,17.6,86,30.16,10.0,West,18.4,25.3,N/A,,Mostly Cloudy,280,2013-01-14 01:55:00
8:15 PM,21.2,17.6,86,30.16,10.0,West,13.8,20.7,N/A,,Overcast,280,2013-01-14 02:15:00
8:35 PM,19.4,15.8,86,30.17,10.0,West,16.1,24.2,N/A,,Mostly Cloudy,280,2013-01-14 02:35:00
8:55 PM,19.4,15.8,86,30.17,10.0,West,20.7,24.2,N/A,,Scattered Clouds,270,2013-01-14 02:55:00
9:15 PM,19.4,15.8,86,30.19,10.0,West,18.4,24.2,N/A,,Mostly Cloudy,270,2013-01-14 03:15:00
9:35 PM,19.4,15.8,86,30.19,10.0,West,17.3,24.2,N/A,,Mostly Cloudy,270,2013-01-14 03:35:00
9:55 PM,19.4,15.8,86,30.20,10.0,West,12.7,19.6,N/A,,Mostly Cloudy,270,2013-01-14 03:55:00
10:15 PM,19.4,15.8,86,30.21,10.0,West,12.7,20.7,N/A,,Overcast,280,2013-01-14 04:15:00
10:35 PM,19.4,14.0,80,30.22,10.0,WNW,13.8,20.7,N/A,,Mostly Cloudy,290,2013-01-14 04:35:00
10:55 PM,17.6,14.0,86,30.23,10.0,West,10.4,-,N/A,,Mostly Cloudy,280,2013-01-14 04:55:00
11:15 PM,17.6,14.0,86,30.24,10.0,West,9.2,-,N/A,,Mostly Cloudy,280,2013-01-14 05:15:00
11:35 PM,17.6,12.2,79,30.25,10.0,West,11.5,18.4,N/A,,Mostly Cloudy,280,2013-01-14 05:35:00
11:55 PM,17.6,12.2,79,30.26,10.0,West,10.4,-,N/A,,Scattered Clouds,280,2013-01-14 05:55:00